User: anonymous   Login
Location: Unspecified
(0.0000°N, 0.0000°E)
Time: 09:50:28
(UTC+02:00)
Language:

Ariane H10 - Orbit

View from above orbital plane
View from above orbital plane
View from above satellite
View from above satellite

Ground track
Ground track

The orbit data is extracted from the following two-line orbital elements,

1 21815U 91084C   16151.13623216 -.00000046  00000-0 -76167-4 0  9990
2 21815   3.8043 244.0230 7180631 117.7630 330.6187  2.31663452203457
Epoch (UTC): 30 May 2016 03:16:10
Eccentricity: 0.7180631
inclination: 3.8043°
perigee height: 424 km
apogee height: 35072 km
right ascension of ascending node: 244.0230°
argument of perigee: 117.7630°
revolutions per day: 2.31663452
mean anomaly at epoch: 330.6187°
orbit number at epoch: 20345

The dashed part of the orbit path shows where the satellite is in the earth's shadow,  

DLR